Location: Most
(50.5330°N, 13.6500°E)
Time: 05:22:14
(UTC+02:00)

ISS - Pass Details

Date: 26 May 2021
Orbit: 417 x 422 km, 51.6° (Epoch: 13 June)

Event Time Altitude Azimuth Distance (km) Brightness Sun altitude
Rises 23:01:17 0° 286° (WNW) 2,368 0.8 -13.4°
Reaches altitude 10° 23:03:28 10° 278° (W) 1,503 -0.4 -13.5°
Maximum altitude 23:06:37 37° 209° (SSW) 664 -3.0 -13.8°
Enters shadow 23:07:47 27° 165° (SSE) 832 -2.8 -13.9°
